Location: Stara Lesna
(49.1528°N, 20.2911°E)
Time: 19:08:58
(UTC+02:00)

Meteor 1-14 Rocket - Pass Details

Date: 13 July 2020
Orbit: 835 x 918 km, 81.3° (Epoch: 11 August)

Event Time Altitude Azimuth Distance (km) Brightness Sun altitude
Exits shadow 02:26:40 24° 197° (SSW) 1,687 5.1 -15.5°
Maximum altitude 02:30:11 80° 283° (WNW) 869 4.2 -15.3°
Drops below altitude 10° 02:35:53 10° 10° (N) 2,510 7.9 -14.9°
Sets 02:38:21 0° 12° (NNE) 3,464 9.0 -14.7°
